Timeline UpdatesTrip UpdatesNews PostsPvt PostsTravel TipsAdmin PostsConv PostsFollowed PostsChat RequestsBlog PostsPNR Posts

Disclaimer
Search
 
 
Wed Sep 17, 2014 19:06:56 ISTHomeTrainsΣChainsAtlasPNRForumGalleryNewsFAQTripsMembersLoginFeedback
No Recent News for this Train
Other Trains in the News **new
Latest...
.
Sat Sep 13, 2014 (05:35PM)
⇐ Return Journey: Train# 58418

58417/Puri Gunupur Passenger (UnReserved)

Time-Table HAS CHANGED.
Sep 13 (5:35PM)
Change Departure Station:
Change Arrival Station:
Post a Train Travel TipPost a Train Travel Tip **new
Post a Comment/Question/Picture/VideoPost a Comment/Question/Picture/Video
Pantry/Catering
✕ NO Pantry Car
✕ NO Catering
Loco/Rake Reversals
KUR/Khurda Road Junction (7);
RSA - Rake Sharing
Rake/Coach Composition
This train will run with 08 coaches i.e. Two Guard cum luggage vans, 05 General Second Class coaches and One Parcel Van.
Loco
News    PNR    Forum    Time-Table    Availability    Fare Chart    Map    Arr/Dep History    Trips    Gallery    ΣChains    X/O    Timeline    
Travel Time: 1h 17m    9 halts    Distance: 44 km    Avg Speed: 34 km/hr
Type: Passenger
Zone: ECoR/East Coast
Departs @ 08:00
Platform# ???
SMTWTFS
Puri/PURI 
Arrives @ 09:17
Platform# ???
SMTWTFS
Khurda Road Junction/KUR 

9 halts. 9 intermediate Stations between Puri and Khurda Road Junction

Show ALL intermediate Stations  Show Old Time-Table

#CodeStation NameX/OArrivesAvgDepartsAvgHaltPFDay#KmSpeedElevZoneAddress
1PURIPuri (5)»  -08:30 08:00---10.03712mECoRPuri, Odisha
2MLTMalatipatpur (1)X  08:42 08:12-08:44 08:13-2 1m117.33715mECoRPuri, Odisha
3JKDPJankidaipur  08:48 08:18-08:49 08:19-1m--110.46013mECoRChandanpur, Odisha
4SILSakhi Gopal (3)X  08:55 08:25-08:56 08:26-1m--116.46710mECoRPuri, Odisha
5BRSTBir Purushottampur  09:01 08:31-09:02 08:32-1m--122.06712mECoRSatasankha, Odisha
6JERD new halt!!  08:36-08:37-1m--126.426 ???
7DEGDelang  09:13 08:43-09:14 08:44-1m--129.0449mECoRKhordha, Odisha
8KASRKanas Road  09:19 08:49-09:20 08:50-1m--132.7429mECoRKhordha, Odisha
9MWQMotari Halt  09:25 08:55-09:26 08:56-1m--136.24612mECoRMotari, Odisha
10HPGMHaripur GramX  09:33 09:03-09:34 09:04-1m--141.51222mECoRKhordha, Odisha
11KURKhurda Road Junction (7)•X09:50 09:17-10:10 09:35-20 18m--144.25325mECoRKhordha, Odisha
12ARGLArgul P.H.  10:16 09:41-10:17 09:42-1m--149.54024mECoRKhordha, Odisha
13KPXRKaipadar Road  10:23 09:48-10:24 09:49-1m--153.56822mECoRKaipada Road, Odisha
14DLMHDhaulimuhanX  10:28 09:53-10:29 09:54-1m--158.04621mECoRKhordha, Odisha
15TAPTapang  10:34 09:59-10:35 10:00-1m--161.87215mECoRKhordha, Odisha
16GLBAGolabai  10:39 10:04-10:40 10:05-1m--166.64813mECoRKhordha, Odisha
17NKPNirakarpurX  10:45 10:10-10:46 10:11-1m--170.67121mECoRNirakarpur, Odisha
18BSDPBhusandpur  10:52 10:17-10:53 10:18-1m--177.76620mECoRBhushandapur, Odisha
19MKTPMuketashwarX  10:58 10:23-10:59 10:24-1m--183.25213mECoRKhordha, Odisha
20KAPGKalupara Ghat  11:04 10:29-11:05 10:30-1m--187.66710mECoRChandeswar, Odisha
21KUUKuhuri  11:11 10:36-11:12 10:37-1m--194.36826mECoRKhordha, Odisha
22GNGDGangadharpur  11:19 10:44-11:20 10:45-1m--1102.36222mECoRKhordha, Odisha
23SLZSolari  11:25 10:50-11:26 10:51-1m--1107.45218mECoRSolari, Odisha
24BALUBalugaon (3)X  11:35 11:00-11:40 11:05-5m--1115.27211mECoR752030, Odisha
25CLKAChilka  11:46 11:11-11:47 11:12-1m--1122.57725mECoRBarkul, Odisha
26KLJIKalijai  11:51 11:16-11:52 11:17-1m--1127.63611mECoRGarh, Odisha
27KITKhallikot (3)  11:57 11:25-11:58 11:26-1m--1132.57513mECoRKhallikot, Odisha
28RBARambha  12:07 11:35-12:08 11:36-1m--1143.77414mECoRGanjam District, Odisha
29HMAHummaX  12:17 11:45-12:18 11:46-1m--1154.77519mECoRGanjam District, Odisha
30GAMGanjamO  12:23 11:51-12:24 11:52-1m--1161.0608mECoRGanjam, Odisha
31CAPCChatrapur Court (2)  12:32 12:00-12:33 12:01-1m--1168.91432mECoRChatrapur, Odisha
32CAPChatrapur  12:37 12:05-12:42 12:06-5 1m--1169.93736mECoRChatrapur, Odisha
33NRSPNarasimhapura  12:48 12:12-12:49 12:13-1m--1173.610850mECoRGanjam, Odisha
34JNPJagan NathapurX  12:54 12:18-12:55 12:19-1m--1182.64829mECoRBerhampur, Odisha
35BAMBrahmapur (3)X  13:05 12:30-13:15 12:35-10 5m21191.37127mECoRBerhampur, Odisha
36GTAGolanthra  13:24 12:44-13:25 12:45-1m--1202.05328mECoRGanjam, Odisha
37SLRDSurla Road  13:31 12:51-13:33 12:52-2 1m--1207.35118mECoRGanjam, Odisha
38IPMIchchapuram  13:41 13:02-13:42 13:03-1m--1215.87921mECoRIchchapuram, Andhra Pradesh
39JPIJhadupudi  13:51 13:12-13:52 13:13-1m--1227.67538mECoRSrikakulam, Andhra Pradesh
40SPTSompeta (4)  13:57 13:18-13:58 13:19-1m--1233.87148mECoRKanchili, Andhra Pradesh
41BAVBaruva  14:07 13:27-14:08 13:28-1m--1243.28117mECoRSrikakulam, Andhra Pradesh
42MMSMandasa Road  14:15 13:35-14:16 13:36-1m--1252.66538mECoRSrikakulam, Andhra Pradesh
43SUDVSummadeviX  14:23 13:42-14:24 13:43-1m--1259.1558mECoRSummadevi, Andhra Pradesh
44PSAPalasa (3)O  15:25 15:10-16:00-35 50m31265.66131mECoRKasibugga, Andhra Pradesh
45PUNPundiX  16:12-16:14-2m--1277.95438mECoRSrikakulam, Andhra Pradesh
46RMZRouthpuram HaltX  16:21-16:22-1m--1284.23312mECoRSrikakulam, Andhra Pradesh
47NWPNaupada Junction  16:35-16:45 17:10-10 35m--1291.43913mECoRNuapada . ph.no. 08945-249728, Andhra Pradesh
48TEKTekkali Halt  16:55 17:20-16:56 17:21-1m--1298.03436mECoRTekkali, Andhra Pradesh
49PDSNPeddasana  17:05 17:30-17:06 17:31-1m--1303.14226mECoRNational Highway 5, Andhra Pradesh
50TMBTemburu  17:19 17:44-17:20 17:45-1m--1312.13276mECoRParalakhemundi, Andhra Pradesh
51GVAGanguwada  17:28 17:53-17:29 17:54-1m--1316.54578mECoRGanguwada, Andhra Pradesh
52PHMPatapatnam  17:43 18:07-17:44 18:08-1m--1326.32268mECoRSrikakulam District, Andhra Pradesh
53PLHParlakhemundi (1)  18:00 18:20-18:02 18:22-2m11330.74460mECoRParalakhemundi, Odisha
54SPRMSitapuram Halt  18:22 18:39-18:23 18:40-1m--1343.13258mECoRParalakhemundi, Odisha
55HBFHadobhangi Halt  18:31 18:48-18:32 18:49-1m--1347.43968mECoRParalakhemundi, Odisha
56KNGRKashinagar Halt  18:45 19:02-18:46 19:03-1m--1355.93762mECoRKashinagar, Odisha
57LRILihuri Halt  18:57 19:14-18:58 19:15-1m--1362.73969mECoRAcross River Vamsadhara, Odisha
58BSDRBansadhara Halt  19:09 19:26-19:10 19:27-1m--1369.73678mECoRBansadhara Halt Railway Station, Odisha
59PLSGPalasingi  19:19 19:36-19:20 19:37-1m--1375.11287mECoRDistt Gajapati, Odisha
60GNPRGunupur  19:45 20:10----1381.5-92mECoRGunupur, Odisha
Scroll to Top
Scroll to Bottom